Location: Ash Swamp
(41.5170°N, 74.6157°W)
Time: 17:25:19
(UTC+00:00)

Cosmos 1140 Rocket - Pass Details

Date: 14 July 2020
Orbit: 744 x 768 km, 74.1° (Epoch: 05 August)

Event Time Altitude Azimuth Distance (km) Brightness Sun altitude
Exits shadow 07:32:14 26° 253° (WSW) 1,452 4.5 -18.2°
Maximum altitude 07:34:17 36° 297° (WNW) 1,185 4.4 -18.0°
Drops below altitude 10° 07:39:07 10° 4° (N) 2,310 6.8 -17.4°
Sets 07:41:41 0° 13° (NNE) 3,242 7.9 -17.1°
